• In Czech Republic
  • List of Countries
  • For 7 days
  • Water Temperature
  • Satellite Maps
  • Weather Map
  • Weather Widgets
  • user-avatar
    Login

    Hourly Weather Uscie Gorlickie

    Today, 20 August, Monday

    Time Temperature Precipitation Wind Pressure Humidity
    00:00 +19°C° 0 mm 1 mps 722 mmHg 84%
    01:00 +18°C° 0 mm 1 mps 721 mmHg 86%
    02:00 +18°C° 0 mm 1 mps 721 mmHg 85%
    03:00 +18°C° 0 mm 1 mps 721 mmHg 85%
    04:00 +18°C° 0 mm 1 mps 721 mmHg 84%
    05:00 +20°C° 0 mm 1 mps 721 mmHg 80%
    06:00 +21°C° 0 mm 1 mps 721 mmHg 75%
    07:00 +23°C° 0 mm 1 mps 721 mmHg 70%
    08:00 +25°C° 0 mm 1 mps 722 mmHg 62%
    09:00 +27°C° 0 mm 1 mps 722 mmHg 54%
    10:00 +30°C° 0 mm 1 mps 722 mmHg 46%
    11:00 +30°C° 0 mm 1 mps 722 mmHg 46%
    12:00 +30°C° 0 mm 1 mps 721 mmHg 45%
    13:00 +30°C° 0 mm 1 mps 721 mmHg 45%
    14:00 +30°C° 0 mm 1 mps 721 mmHg 47%
    15:00 +30°C° 0 mm 1 mps 721 mmHg 48%
    16:00 +29°C° 0 mm 1 mps 720 mmHg 49%
    17:00 +27°C° 0 mm 1 mps 720 mmHg 55%
    18:00 +25°C° 0 mm 1 mps 720 mmHg 60%
    19:00 +23°C° 0 mm 1 mps 719 mmHg 65%
    20:00 +22°C° 0.2 mm 1 mps 720 mmHg 67%
    21:00 +22°C° 0.2 mm 1 mps 720 mmHg 69%
    22:00 +21°C° 0.2 mm 1 mps 720 mmHg 71%
    23:00 +20°C° 0.1 mm 1 mps 720 mmHg 72%

    Tomorrow, 21 August, Tuesday

    Time Temperature Precipitation Wind Pressure Humidity
    00:00 +20°C° 0.1 mm 1 mps 720 mmHg 73%
    01:00 +20°C° 0.1 mm 1 mps 720 mmHg 74%
    02:00 +19°C° 0 mm 1 mps 720 mmHg 77%
    03:00 +19°C° 0 mm 1 mps 720 mmHg 80%
    04:00 +18°C° 0 mm 1 mps 721 mmHg 83%
    05:00 +19°C° 0 mm 1 mps 721 mmHg 81%
    06:00 +19°C° 0 mm 2 mps 721 mmHg 79%
    07:00 +20°C° 0 mm 2 mps 722 mmHg 78%
    08:00 +21°C° 0 mm 2 mps 722 mmHg 74%
    09:00 +23°C° 0 mm 2 mps 722 mmHg 69%
    10:00 +25°C° 0 mm 3 mps 722 mmHg 65%
    11:00 +25°C° 0.1 mm 3 mps 722 mmHg 64%
    12:00 +25°C° 0.1 mm 3 mps 722 mmHg 62%
    13:00 +26°C° 0.1 mm 3 mps 722 mmHg 61%
    14:00 +25°C° 0.1 mm 3 mps 722 mmHg 62%
    15:00 +25°C° 0.1 mm 3 mps 722 mmHg 64%
    16:00 +25°C° 0.1 mm 3 mps 722 mmHg 65%
    17:00 +23°C° 0 mm 2 mps 722 mmHg 71%
    18:00 +21°C° 0 mm 2 mps 722 mmHg 76%
    19:00 +20°C° 0 mm 1 mps 722 mmHg 81%
    20:00 +19°C° 0 mm 1 mps 722 mmHg 83%
    21:00 +18°C° 0 mm 1 mps 722 mmHg 84%
    22:00 +18°C° 0 mm 1 mps 722 mmHg 86%
    23:00 +16°C° 0 mm 1 mps 722 mmHg 87%

    Day after tomorrow, 22 August, Wednesday

    Time Temperature Precipitation Wind Pressure Humidity
    00:00 +15°C° 0 mm 1 mps 722 mmHg 87%
    01:00 +15°C° 0 mm 1 mps 722 mmHg 88%
    02:00 +14°C° 0 mm 1 mps 722 mmHg 88%
    03:00 +14°C° 0 mm 1 mps 722 mmHg 88%
    04:00 +14°C° 0 mm 1 mps 722 mmHg 88%
    05:00 +15°C° 0 mm 1 mps 723 mmHg 82%
    06:00 +16°C° 0 mm 1 mps 723 mmHg 76%
    07:00 +19°C° 0 mm 1 mps 723 mmHg 71%
    08:00 +20°C° 0 mm 1 mps 723 mmHg 64%
    09:00 +21°C° 0 mm 2 mps 723 mmHg 57%
    10:00 +24°C° 0 mm 2 mps 724 mmHg 50%
    11:00 +24°C° 0 mm 2 mps 723 mmHg 49%
    12:00 +25°C° 0 mm 2 mps 723 mmHg 47%
    13:00 +26°C° 0 mm 2 mps 723 mmHg 45%
    14:00 +26°C° 0 mm 2 mps 723 mmHg 48%
    15:00 +25°C° 0 mm 2 mps 722 mmHg 50%
    16:00 +25°C° 0 mm 3 mps 722 mmHg 53%
    17:00 +23°C° 0 mm 2 mps 722 mmHg 62%
    18:00 +20°C° 0 mm 2 mps 722 mmHg 71%
    19:00 +19°C° 0 mm 1 mps 721 mmHg 80%
    20:00 +18°C° 0 mm 1 mps 722 mmHg 83%
    21:00 +16°C° 0 mm 1 mps 722 mmHg 86%
    22:00 +16°C° 0 mm 1 mps 722 mmHg 88%
    23:00 +15°C° 0 mm 1 mps 721 mmHg 89%

    23 August, Thursday

    Time Temperature Precipitation Wind Pressure Humidity
    00:00 +15°C° 0 mm 1 mps 721 mmHg 89%
    01:00 +15°C° 0 mm 1 mps 721 mmHg 90%
    02:00 +15°C° 0 mm 1 mps 721 mmHg 90%
    03:00 +15°C° 0 mm 1 mps 721 mmHg 89%
    04:00 +15°C° 0 mm 1 mps 720 mmHg 89%
    05:00 +18°C° 0 mm 1 mps 721 mmHg 83%
    06:00 +17°C° 0 mm 0 mps 721 mmHg 78%
    07:00 +19°C° 0 mm 0 mps 721 mmHg 72%
    08:00 +23°C° 0 mm 1 mps 721 mmHg 65%
    09:00 +26°C° 0 mm 1 mps 721 mmHg 58%
    10:00 +28°C° 0 mm 1 mps 721 mmHg 51%
    11:00 +28°C° 0 mm 1 mps 721 mmHg 49%
    12:00 +29°C° 0 mm 1 mps 721 mmHg 48%
    13:00 +30°C° 0 mm 1 mps 720 mmHg 46%
    14:00 +29°C° 0 mm 1 mps 720 mmHg 49%
    15:00 +27°C° 0 mm 0 mps 720 mmHg 52%
    16:00 +26°C° 0 mm 0 mps 719 mmHg 55%
    17:00 +26°C° 0 mm 1 mps 719 mmHg 60%
    18:00 +25°C° 0 mm 1 mps 719 mmHg 65%
    19:00 +23°C° 0 mm 1 mps 719 mmHg 69%
    20:00 +22°C° 0 mm 1 mps 719 mmHg 72%
    21:00 +21°C° 0 mm 1 mps 719 mmHg 75%
    22:00 +21°C° 0 mm 1 mps 718 mmHg 77%
    23:00 +20°C° 0 mm 1 mps 718 mmHg 78%

    24 August, Friday

    Time Temperature Precipitation Wind Pressure Humidity
    00:00 +20°C° 0 mm 1 mps 718 mmHg 78%
    01:00 +20°C° 0 mm 1 mps 718 mmHg 78%
    02:00 +19°C° 0 mm 1 mps 718 mmHg 79%
    03:00 +19°C° 0 mm 1 mps 717 mmHg 79%
    04:00 +18°C° 0 mm 2 mps 717 mmHg 79%
    05:00 +19°C° 0 mm 2 mps 717 mmHg 76%
    06:00 +20°C° 0 mm 2 mps 717 mmHg 73%
    07:00 +23°C° 0 mm 2 mps 717 mmHg 69%
    08:00 +25°C° 0 mm 2 mps 717 mmHg 62%
    09:00 +27°C° 0 mm 2 mps 717 mmHg 56%
    10:00 +29°C° 0 mm 3 mps 718 mmHg 49%
    11:00 +29°C° 0 mm 3 mps 717 mmHg 48%
    12:00 +29°C° 0 mm 3 mps 717 mmHg 47%
    13:00 +29°C° 0 mm 3 mps 717 mmHg 46%
    14:00 +29°C° 0 mm 3 mps 716 mmHg 48%
    15:00 +29°C° 0 mm 3 mps 716 mmHg 49%
    16:00 +29°C° 0 mm 3 mps 716 mmHg 51%
    17:00 +27°C° 0 mm 2 mps 716 mmHg 57%
    18:00 +25°C° 0 mm 2 mps 715 mmHg 63%
    19:00 +23°C° 0 mm 2 mps 715 mmHg 69%
    20:00 +22°C° 0.4 mm 1 mps 715 mmHg 72%
    21:00 +21°C° 0.4 mm 1 mps 715 mmHg 76%
    22:00 +20°C° 0.4 mm 1 mps 715 mmHg 79%
    23:00 +20°C° 0.5 mm 1 mps 714 mmHg 82%

    25 August, Saturday

    Time Temperature Precipitation Wind Pressure Humidity
    00:00 +19°C° 0.5 mm 1 mps 714 mmHg 85%
    01:00 +19°C° 0.5 mm 1 mps 714 mmHg 88%
    02:00 +19°C° 0.4 mm 1 mps 714 mmHg 90%
    03:00 +18°C° 0.4 mm 1 mps 714 mmHg 91%
    04:00 +18°C° 0.4 mm 1 mps 714 mmHg 93%
    05:00 +19°C° 0.4 mm 1 mps 714 mmHg 91%
    06:00 +20°C° 0.4 mm 1 mps 714 mmHg 88%
    07:00 +20°C° 0.4 mm 2 mps 714 mmHg 86%
    08:00 +21°C° 0.1 mm 2 mps 715 mmHg 80%
    09:00 +23°C° 0.1 mm 2 mps 715 mmHg 74%
    10:00 +24°C° 0.1 mm 3 mps 715 mmHg 69%
    11:00 +22°C° 0.8 mm 3 mps 715 mmHg 74%
    12:00 +21°C° 0.8 mm 4 mps 715 mmHg 79%
    13:00 +20°C° 0.8 mm 4 mps 715 mmHg 84%
    14:00 +18°C° 1 mm 4 mps 715 mmHg 86%
    15:00 +17°C° 1 mm 4 mps 715 mmHg 89%
    16:00 +15°C° 1 mm 4 mps 715 mmHg 91%
    17:00 +14°C° 0.9 mm 3 mps 715 mmHg 92%
    18:00 +14°C° 0.9 mm 3 mps 715 mmHg 94%
    19:00 +14°C° 0.9 mm 2 mps 716 mmHg 95%
    20:00 +14°C° 0.1 mm 2 mps 716 mmHg 95%
    21:00 +13°C° 0.1 mm 3 mps 716 mmHg 96%
    22:00 +12°C° 0.1 mm 3 mps 716 mmHg 96%
    23:00 +13°C° 0 mm 2 mps 716 mmHg 96%
    Show more